Regional Weather Roundup
Issued by NWS Newport/Morehead, NC

Current Version | Previous Version | Text Only | Print | Product List | Glossary On
Versions: 1 2 3 4 5 6 7 8 9 10 11 12 13 14 15 16 17 18 19 20 21 22 23 24 25 26 27 28 29 30 31 32 33 34 35 36 37 38 39 40 41 42 43 44 45 46 47 48 49 50
000
ASUS42 KMHX 290113
RWRMHX
WEATHER ROUNDUP FOR EASTERN NORTH CAROLINA
NATIONAL WEATHER SERVICE NEWPORT/MOREHEAD CITY NC
900 PM EDT SUN AUG 28 2016

NOTE: "FAIR" INDICATES FEW OR NO CLOUDS BELOW 12,000 FEET
WITH NO SIGNIFICANT WEATHER AND/OR OBSTRUCTIONS TO VISIBILITY

NCZ015>017-031-032-045>047-102-103-290200-
NORTH COAST

CITY           SKY/WX    TMP DP  RH WIND       PRES   REMARKS
EDENTON        CLOUDY    78  73  84 NE5       30.13R
ELIZABETH CITY CLEAR     77  74  90 N9        30.13R
KITTY HAWK     PTCLDY    79  79 100 NE5       30.10S
MANTEO         MOCLDY    79  78  96 NE10G16   30.11S

$$

NCZ045>047-081-094-103-104-290200-
CENTRAL COAST

CITY           SKY/WX    TMP DP  RH WIND       PRES   REMARKS
FRISCO         CLOUDY    79  76  90 NE3       30.09R

$$

NCZ095-097-098-100-101-290200-
SOUTHERN COAST

CITY           SKY/WX    TMP DP  RH WIND       PRES   REMARKS
BEAUFORT       MOCLDY    79  76  90 N6        30.08R
CEDAR ISLAND   NOT AVBL
JACKSONVILLE   CLOUDY    78  75  90 NE7       30.08R
PINEY ISLAND   NOT AVBL
WILMINGTON     CLOUDY    77  74  90 N3        30.08R


$$

NCZ011>013-027>030-043-044-078>080-089-090>093-098-290200-
COASTAL PLAIN

CITY           SKY/WX    TMP DP  RH WIND       PRES   REMARKS
AHOSKIE        CLOUDY    75  70  84 NE3       30.13S
CLINTON        PTCLDY    76  75  99 NE3       30.11R
ELIZABETHTOWN  MOCLDY    75  75  98 CALM      30.10R
GOLDSBORO      LGT RAIN  77  77 100 NE6       30.10R
GREENVILLE     CLOUDY    77  77 100 NE3       30.12R
HAVELOCK       CLOUDY    79  75  87 NE6       30.10R
KENANSVILLE    PTCLDY    75  73  94 CALM      30.11R
KINSTON        CLOUDY    75  73  94 E5        30.12R
NEW BERN       PTCLDY    76  74  93 N6        30.11R
RICHLANDS      CLEAR     75  74  96 NE6       30.10R
ROCKY MOUNT    LGT RAIN  78  74  87 NE5       30.12R
WASHINGTON     PTCLDY    74  73  98 NE6       30.11R
WHITEVILLE     PTCLDY    76  73  88 CALM      30.09R

$$

AMZ130-135-150-152-154-156-158-170-250-252-270-ANZ085-086-088-633-658-670-290200-
MARINE OBSERVATIONS

STATION/POSITION TIME  TEMP    WIND        PRES    WAVE   SWELL
                       AIR SEA DIR/SP/G            HT/PER HT/PER
                 (UTC) (F)     (DEG/KT/KT) (MB)    (FT/S) (FT/S)
CHESAPEAKE LIGHT NOT AVBL
64 E VA BEACH    0050   81 81   80/ 14/ 16 1019.2    5/ 6   3/ 6
DUCK             0000   79 78   40/ 14/ 16 1019.1
2 E DUCK         0011      79                N/A     4/ 5
OREGON INLET     0000   80 81   40/  8/ 10 1019.0
13E OREGON INLT  0000      81                N/A     4/ 5   3/ 5
HATTERAS CG      0000   81 82   40/  7/ 10 1018.4
DIAMOND BUOY     0050   81 84   50/  2/ 12 1018.9    3/15   3/15
CAPE LOOKOUT     0100   82      50/ 14/ 15 1018.3
BEAUFORT LAB     0000   80 82   20/  4/  5 1017.8
30 SE NEW RVR IN 0008   83 84   60/ 14/ 17 1017.8
30 SE NEW RVR IN 0025      84                N/A     3/ 8
27 SE WRIGHTSVLE 0008   83 84   50/ 14/ 17 1017.7
5 SE WRIGHTSVLE  0008   81 83   50/ 12/ 16 1018.8
225 S CAPE HAT   0050   83 84   30/ 12/ 14 1016.1    4/14   3/14
41 SE CHARLESTON 0050   84 85   60/ 14/ 16 1016.5    3/ 8   2/ 8

$$




USA.gov is the U.S. government's official web portal to all federal, state and local government web resources and services.